EW3521 Weather Reports


Display with metric or nautical units.
time (UTC)temp
F
wind
direction
speed
MPH
gust
MPH
rain 1hr
in
rain 24hr
in
rain mn
in
humidity
%
barometer
mb
20191018061737 32 134 0.0 0.0 0.00 0.00 0.00 98 1024.8
20191018060132 31 134 0.0 0.0 0.00 0.00 0.00 98 1024.7
20191018054651 31 134 0.0 0.0 0.00 0.00 0.00 98 1024.6
20191018053211 30 134 0.0 0.0 0.00 0.00 0.00 97 1024.4
20191018051750 30 134 0.0 0.0 0.00 0.00 0.00 97 1024.1
20191018050158 31 134 0.0 0.0 0.00 0.00 0.00 97 1024.1
20191018044702 30 134 0.0 1.0 0.00 0.00 0.00 97 1023.9
20191018043106 29 134 0.0 0.0 0.00 0.00 0.00 97 1023.8
20191018041720 29 134 0.0 1.0 0.00 0.00 0.00 97 1023.5
20191018040123 30 134 0.0 0.0 0.00 0.00 0.00 96 1023.4
20191018034624 30 134 0.0 0.0 0.00 0.00 0.00 97 1023.6
20191018033119 30 134 0.0 0.0 0.00 0.00 0.00 96 1023.7
20191018031626 31 134 0.0 0.0 0.00 0.00 0.00 96 1023.9
20191018024544 32 134 0.0 0.0 0.00 0.00 0.00 96 1023.9
20191018023138 32 134 0.0 0.0 0.00 0.00 0.00 96 1024.1
20191018021538 33 134 0.0 1.0 0.00 0.00 0.00 95 1023.9
20191018020037 34 134 0.0 0.0 0.00 0.00 0.00 95 1023.8
20191018014526 35 134 0.0 0.0 0.00 0.00 0.00 95 1023.8
20191018013057 36 134 0.0 0.0 0.00 0.00 0.00 94 1023.7
20191018011525 37 134 0.0 0.0 0.00 0.00 0.00 94 1023.6
20191018010036 38 134 0.0 0.0 0.00 0.00 0.00 94 1023.3
20191018004538 38 134 0.0 0.0 0.00 0.00 0.00 94 1023.3
20191018003027 38 134 0.0 0.0 0.00 0.00 0.00 94 1023.4
20191018001631 38 134 0.0 0.0 0.00 0.00 0.00 94 1023.5
20191018000033 38 134 0.0 0.0 0.00 0.00 0.00 92 1023.4
20191017234527 38 134 0.0 1.0 0.00 0.00 0.00 91 1023.4
20191017233034 39 134 0.0 0.0 0.00 0.00 0.00 89 1023.1
20191017231526 41 134 0.0 0.0 0.00 0.00 0.00 86 1022.9
20191017230009 42 134 0.0 0.0 0.00 0.00 0.00 84 1022.8
20191017224519 43 134 0.0 1.0 0.00 0.00 0.00 82 1022.7
20191017223017 43 180 0.0 1.0 0.00 0.00 0.00 79 1022.4
20191017221509 44 135 0.0 2.0 0.00 0.00 0.00 76 1022.4
20191017220330 45 142 0.0 3.0 0.00 0.00 0.00 73 1022.1
20191017214711 45 147 0.0 6.0 0.00 0.00 0.00 72 1022.0
20191017213235 46 153 1.0 6.0 0.00 0.00 0.00 71 1022.0
20191017211708 45 137 0.0 1.0 0.00 0.00 0.00 79 1021.8
20191017210237 45 138 0.0 1.0 0.00 0.00 0.00 78 1021.7
20191017204711 45 150 0.0 1.0 0.00 0.01 0.00 78 1021.5
20191017203139 46 136 0.0 2.0 0.00 0.01 0.00 76 1021.6
20191017201650 47 120 0.0 2.0 0.00 0.01 0.00 72 1021.2
20191017200113 47 127 0.0 2.0 0.00 0.01 0.00 71 1021.2
20191017194632 46 138 0.0 1.0 0.00 0.01 0.00 71 1021.4
20191017193107 46 150 0.0 2.0 0.00 0.01 0.00 75 1021.5
20191017191635 46 147 0.0 1.0 0.00 0.01 0.00 74 1021.4
20191017190132 46 136 0.0 2.0 0.00 0.01 0.00 72 1021.3
20191017184640 46 146 0.0 3.0 0.00 0.02 0.00 73 1021.2
20191017183211 46 143 0.0 3.0 0.00 0.02 0.00 74 1021.3
20191017181632 46 165 0.0 3.0 0.00 0.02 0.00 74 1021.3
20191017180135 46 164 0.0 3.0 0.00 0.02 0.00 74 1021.3
20191017174614 46 172 0.0 3.0 0.00 0.03 0.00 72 1021.2
20191017173213 45 147 0.0 5.0 0.00 0.03 0.00 74 1021.2
20191017171556 45 150 0.0 2.0 0.00 0.03 0.00 73 1021.2
20191017170120 45 142 0.0 3.0 0.00 0.03 0.00 72 1021.3
20191017164609 45 141 0.0 2.0 0.00 0.04 0.00 75 1021.5
20191017163119 45 136 0.0 5.0 0.00 0.04 0.00 74 1021.6
20191017161625 44 148 0.0 6.0 0.00 0.04 0.00 76 1021.8
20191017160154 44 138 0.0 3.0 0.00 0.04 0.00 76 1021.9
20191017154638 44 141 0.0 3.0 0.00 0.05 0.00 75 1022.0
20191017153054 44 151 0.0 4.0 0.00 0.05 0.00 77 1022.0
20191017151546 43 117 0.0 3.0 0.00 0.05 0.00 78 1022.0
20191017150100 43 131 0.0 4.0 0.00 0.05 0.00 77 1022.0
20191017144543 42 226 0.0 3.0 0.00 0.13 0.00 78 1021.8
20191017143039 42 142 0.0 4.0 0.00 0.13 0.00 78 1021.9
20191017141619 42 156 1.0 4.0 0.00 0.13 0.00 78 1021.7
20191017140035 41 195 0.0 2.0 0.00 0.13 0.00 81 1021.7
20191017134551 41 144 0.0 1.0 0.00 0.24 0.00 83 1021.7
20191017133127 40 126 0.0 4.0 0.00 0.24 0.00 85 1021.5
20191017130054 37 147 0.0 0.0 0.00 0.24 0.00 96 1021.4
20191017124603 36 147 0.0 0.0 0.00 0.33 0.00 97 1021.1
20191017123046 35 147 0.0 0.0 0.00 0.33 0.00 97 1020.8
20191017121540 34 153 0.0 0.0 0.00 0.33 0.00 96 1020.8
20191017120022 34 153 0.0 0.0 0.00 0.33 0.00 95 1020.7
20191017114550 35 153 0.0 0.0 0.00 0.34 0.00 95 1020.6
20191017113057 35 153 0.0 0.0 0.00 0.34 0.00 93 1020.5
20191017111523 36 153 0.0 0.0 0.00 0.34 0.00 92 1020.4
20191017110007 36 154 0.0 0.0 0.00 0.40 0.00 91 1020.1
20191017104502 37 154 0.0 0.0 0.00 0.40 0.00 89 1020.0
20191017103002 38 124 0.0 0.0 0.00 0.40 0.00 88 1019.9
20191017101639 39 122 0.0 0.0 0.00 0.40 0.00 86 1020.0
20191017100131 39 146 0.0 0.0 0.00 0.40 0.00 87 1019.8
20191017094655 39 131 0.0 1.0 0.00 0.42 0.00 87 1019.7
20191017093120 38 145 0.0 0.0 0.00 0.42 0.00 91 1019.6
20191017091640 38 160 0.0 0.0 0.00 0.42 0.00 91 1019.6
20191017090256 38 150 0.0 0.0 0.00 0.42 0.00 92 1019.5
20191017084626 38 191 0.0 1.0 0.00 0.42 0.00 92 1019.4
20191017083119 37 146 0.0 0.0 0.00 0.42 0.00 92 1019.4
20191017081655 38 147 0.0 0.0 0.00 0.42 0.00 90 1019.4
20191017080110 38 147 0.0 0.0 0.00 0.42 0.00 88 1019.3
20191017074714 39 161 0.0 1.0 0.00 0.45 0.00 86 1019.2
20191017073106 40 139 0.0 1.0 0.00 0.45 0.00 85 1019.0
20191017071616 40 143 0.0 2.0 0.00 0.45 0.00 84 1018.9
20191017070118 40 140 0.0 3.0 0.00 0.45 0.00 84 1018.9
20191017064606 41 141 0.0 2.0 0.00 0.46 0.00 85 1018.9
20191017063103 41 133 0.0 2.0 0.00 0.46 0.00 84 1018.8